Date String (YYYY-MM-DD hh:mm:ss) UTC,Instrument flags,Ambient pressure (hPa),Sample flow (lpm),Bypass flow (lpm),Sample temperature (°C),Ambient temperature (°C),ASC tube jacket temperature (°C),LED temperature (°C),Box temperature (°C),Sample RH (%),Span deviation,Mass concentration (μg/m³),Mass concentration (μg/m³),Mass concentration (μg/m³)
DateTimeUTC,F1_M11,P_M11,Q1_M11,Q2_M11,T1_M11,T2_M11,T3_M11,T4_M11,T5_M11,U1_M11,ZSPAN_M11,X0_M11,X2_M11,X1_M11
2023-05-23 05:00:00,,0829.8,5.00,0.00,29.6,28.0,00.0,37.9,31.2,19.5,0003.6,0049.25,0035.47,0033.93
2023-05-23 05:01:00,,0829.8,5.01,0.00,29.6,28.0,00.0,38.0,31.2,19.8,0003.7,0049.89,0035.58,0033.98
2023-05-23 05:02:00,,0829.8,5.01,0.00,29.6,28.0,00.0,38.0,31.2,19.7,0003.7,0049.78,0035.55,0033.97
2023-05-23 05:03:00,,0829.8,5.00,0.00,29.6,28.0,00.0,38.0,31.2,19.7,0003.7,0049.99,0035.56,0033.97
2023-05-23 05:04:00,,0829.8,4.99,0.00,29.6,28.0,00.0,38.0,31.2,19.7,0003.7,0050.83,0035.57,0033.95
2023-05-23 05:05:00,,0829.8,4.98,0.00,29.7,28.0,00.0,38.0,31.3,19.6,0003.7,0051.12,0035.55,0033.90
2023-05-23 05:06:00,,0829.8,5.01,0.00,29.7,28.0,00.0,38.0,31.3,20.0,0003.7,0050.31,0035.57,0033.90
2023-05-23 05:07:00,,0829.8,5.01,0.00,29.7,28.0,00.0,38.0,31.2,20.1,0003.7,0050.07,0035.61,0033.95
2023-05-23 05:08:00,,0829.8,5.01,0.00,29.7,28.0,00.0,38.0,31.2,20.1,0003.7,0050.18,0035.66,0033.97
2023-05-23 05:09:00,,0829.8,5.00,0.00,29.7,28.0,00.0,38.0,31.2,20.0,0003.8,0050.15,0035.68,0034.00
2023-05-23 05:10:00,,0829.8,5.00,0.00,29.7,28.0,00.0,38.0,31.3,19.7,0003.8,0049.98,0035.62,0033.96
2023-05-23 05:11:00,,0829.8,4.99,0.00,29.7,28.0,00.0,38.0,31.3,19.5,0003.7,0049.84,0035.56,0033.94
2023-05-23 05:12:00,,0829.8,4.99,0.00,29.7,28.0,00.0,38.0,31.3,19.4,0003.7,0048.90,0035.37,0033.81
2023-05-23 05:13:00,,0829.8,5.00,0.00,29.7,28.0,00.0,38.0,31.3,19.4,0003.8,0049.28,0035.22,0033.68
2023-05-23 05:14:00,,0829.8,4.99,0.00,29.7,28.1,00.0,38.0,31.3,19.4,0003.8,0049.72,0035.06,0033.53
2023-05-23 05:15:00,,0829.8,5.00,0.00,29.7,28.1,00.0,38.0,31.3,19.4,0003.7,0048.55,0034.93,0033.45
2023-05-23 05:16:00,,0829.8,5.00,0.00,29.7,28.1,00.0,38.0,31.3,19.4,0003.7,0047.30,0034.82,0033.41
2023-05-23 05:17:00,,0829.8,4.99,0.00,29.7,28.1,00.0,38.0,31.3,19.4,0003.7,0047.55,0034.74,0033.35
2023-05-23 05:18:00,,0829.8,5.00,0.00,29.7,28.1,00.0,38.1,31.3,19.4,0003.7,0047.52,0034.61,0033.23
2023-05-23 05:19:00,,0829.8,5.00,0.00,29.7,28.1,00.0,38.1,31.3,19.4,0003.7,0047.80,0034.52,0033.13
2023-05-23 05:20:00,,0829.8,5.00,0.00,29.7,28.1,00.0,38.1,31.3,19.5,0003.7,0047.76,0034.42,0033.01
2023-05-23 05:21:00,,0829.8,5.01,0.00,29.7,28.1,00.0,38.1,31.3,19.7,0003.7,0048.12,0034.42,0032.98
2023-05-23 05:22:00,,0829.8,5.00,0.00,29.7,28.1,00.0,38.1,31.3,19.7,0003.7,0048.35,0034.41,0032.95
2023-05-23 05:23:00,,0829.8,5.00,0.00,29.7,28.1,00.0,38.1,31.3,19.9,0003.6,0049.03,0034.52,0033.00
2023-05-23 05:24:00,,0829.8,5.00,0.00,29.7,28.1,00.0,38.1,31.3,20.0,0003.6,0048.65,0034.58,0033.04
2023-05-23 05:25:00,,0829.8,5.00,0.00,29.7,28.1,00.0,38.1,31.3,19.8,0003.6,0048.84,0034.56,0033.02
2023-05-23 05:26:00,,0829.8,5.00,0.00,29.7,28.0,00.0,38.1,31.3,20.1,0003.6,0049.03,0034.59,0033.01
2023-05-23 05:27:00,,0829.8,5.00,0.00,29.7,28.1,00.0,38.1,31.3,20.2,0003.7,0049.20,0034.61,0033.01
2023-05-23 05:28:00,,0829.8,5.00,0.00,29.7,28.1,00.0,38.1,31.3,19.8,0003.7,0048.84,0034.58,0033.00
2023-05-23 05:29:00,,0829.9,4.99,0.00,29.7,28.1,00.0,38.1,31.3,19.8,0003.7,0049.44,0034.69,0033.03
2023-05-23 05:30:00,,0829.8,5.00,0.00,29.7,28.1,00.0,38.1,31.3,19.6,0003.6,0049.47,0034.74,0033.05
2023-05-23 05:31:00,,0829.8,5.01,0.00,29.8,28.1,00.0,38.1,31.3,19.7,0003.5,0049.83,0034.81,0033.10
2023-05-23 05:32:00,,0829.8,5.00,0.00,29.7,28.1,00.0,38.1,31.3,19.8,0003.4,0049.94,0034.88,0033.15
2023-05-23 05:33:00,,0829.8,5.00,0.00,29.7,28.1,00.0,38.1,31.3,20.0,0003.4,0050.47,0034.97,0033.20
2023-05-23 05:34:00,,0829.8,5.00,0.00,29.7,28.1,00.0,38.1,31.3,19.9,0003.4,0049.97,0034.96,0033.22
2023-05-23 05:35:00,,0829.8,5.00,0.00,29.7,28.1,00.0,38.1,31.3,19.9,0003.4,0049.80,0034.93,0033.20
2023-05-23 05:36:00,,0829.8,4.99,0.00,29.7,28.0,00.0,38.1,31.3,20.0,0003.4,0049.02,0034.97,0033.24
2023-05-23 05:37:00,,0829.8,4.99,0.00,29.7,28.1,00.0,38.1,31.3,20.1,0003.5,0049.26,0035.00,0033.34
2023-05-23 05:38:00,,0829.8,5.00,0.00,29.8,28.1,00.0,38.1,31.3,20.0,0003.5,0049.34,0035.03,0033.39
2023-05-23 05:39:00,,0829.8,5.00,0.00,29.7,28.1,00.0,38.1,31.3,20.0,0003.5,0049.41,0035.09,0033.40
2023-05-23 05:40:00,,0829.8,5.01,0.00,29.7,28.0,00.0,38.1,31.3,20.0,0003.5,0048.70,0035.00,0033.38
2023-05-23 05:41:00,,0829.8,5.00,0.00,29.7,28.0,00.0,38.1,31.3,19.8,0003.5,0048.53,0034.94,0033.37
2023-05-23 05:42:00,,0829.9,4.98,0.00,29.7,28.0,00.0,38.1,31.3,19.6,0003.6,0048.28,0034.93,0033.39
2023-05-23 05:43:00,,0829.8,5.00,0.00,29.7,28.0,00.0,38.1,31.3,19.8,0003.6,0048.21,0034.96,0033.38
2023-05-23 05:44:00,,0829.9,5.00,0.00,29.7,28.0,00.0,38.1,31.3,19.7,0003.6,0047.51,0034.87,0033.32
2023-05-23 05:45:00,,0829.9,5.00,0.00,29.7,28.0,00.0,38.1,31.3,19.7,0003.6,0047.31,0034.81,0033.28
2023-05-23 05:46:00,,0829.8,5.01,0.00,29.7,28.0,00.0,38.1,31.3,19.8,0003.6,0047.99,0034.87,0033.30
2023-05-23 05:47:00,,0829.8,5.00,0.00,29.7,28.0,00.0,38.1,31.3,19.6,0003.5,0048.85,0034.91,0033.32
2023-05-23 05:48:00,,0829.8,5.00,0.00,29.7,28.0,00.0,38.1,31.3,19.4,0003.3,0048.67,0034.98,0033.32
2023-05-23 05:49:00,,0829.8,5.00,0.00,29.7,28.0,00.0,38.1,31.3,19.3,0003.3,0048.31,0035.02,0033.30
2023-05-23 05:50:00,,0829.8,4.99,0.00,29.7,28.0,00.0,38.1,31.3,19.3,0003.3,0048.28,0034.99,0033.29
2023-05-23 05:51:00,,0829.8,5.00,0.00,29.7,28.0,00.0,38.1,31.3,19.3,0003.2,0048.43,0035.03,0033.32
2023-05-23 05:52:00,,0829.8,5.00,0.00,29.7,28.0,00.0,38.1,31.3,19.2,0003.1,0049.02,0035.06,0033.31
2023-05-23 05:53:00,,0829.8,5.00,0.00,29.7,28.0,00.0,38.1,31.3,19.3,0003.1,0049.13,0035.06,0033.29
2023-05-23 05:54:00,,0829.8,5.00,0.00,29.7,28.0,00.0,38.1,31.3,19.3,0003.1,0049.53,0035.05,0033.30
2023-05-23 05:55:00,,0829.8,5.00,0.00,29.7,28.0,00.0,38.1,31.3,19.2,0003.1,0050.01,0035.14,0033.36
2023-05-23 05:56:00,,0829.8,5.01,0.00,29.7,28.0,00.0,38.1,31.3,19.1,0003.2,0050.12,0035.20,0033.40
2023-05-23 05:57:00,,0829.9,4.99,0.00,29.8,28.0,00.0,38.1,31.3,19.1,0003.2,0049.50,0035.07,0033.32
2023-05-23 05:58:00,,0829.9,5.00,0.00,29.7,28.0,00.0,38.1,31.3,19.2,0003.3,0048.39,0034.76,0033.07
2023-05-23 05:59:00,,0829.9,5.00,0.00,29.7,28.0,00.0,38.1,31.3,18.9,0003.4,0047.96,0034.16,0032.54
